Zurück zum Katalog

STARLINK-36170

AktivKommunikationVLEO
NORAD 67083·PAYLOAD·🇺🇸 United States

Gestartet Dec 14, 2025 von Vandenberg Space Force Base

Loading…

Nächste Überflüge (nächste 24 Stunden)

TLE

AktuellSource: CelesTrak SupGP

Epoche: Sep 15, 2026, 04:09 UTC

1 67083C 25298J   26258.17340278 -.00047300  00000+0 -39634-2 0  2585
2 67083  70.0001 256.7691 0003873 268.5142 260.1721 14.98357534    18

Verfolge STARLINK-36170 in Echtzeit mit AllMySat

Download on the App Store